www.pogodaiklimat.ru

Погода и климат >> Архив погоды >> Россия >> Ставропольский край >> Ставрополь


АРХИВ ПОГОДЫ в Ставрополе

Время (UTC), дата Ветер
(напр.,м/с)
 
Видим.   Явления Облачность Т
(С)
Тd
(С)
f
(%)
Тe
(С)
Тes
(С)
Комфортность P
(гПа)
Po
(гПа)
Тmin
(С)
Tmax
(С)
R
(мм)
R24
(мм)
S
(см)
09 13.04 С 2 20 км слаб. ливневой дождь 10/6 1000 м
[Cb cap Ac und]
+13.0 +8.9 76 +12 +14 тепло 1016.6 963.7
12 13.04 В 4 20 км {ливн. осадки} 8/4 1000 м
[Cb calv Ac trans]
+15.0 +8.7 66 +14 +16 по сезону 1015.3 962.8
15 13.04 С 4 20 км 10/5 1000 м
[Cb calv Ac und]
+13.4 +8.4 72 +12 +12 тепло 1016.2 963.3 +16.3 0.5
18 13.04 штиль 0 20 км {ливн. осадки} 10/8 1000 м
[Cb calv Ac und]
+10.6 +9.3 92 +10 +10 тепло 1017.5 964.1
21 13.04 ЮЗ 2 20 км {ливн. осадки} 10/8 1000 м
[Cb calv Ac und]
+9.9 +9.1 95 +8 +8 тепло 1017.1 963.6
00 14.04 Ю 2 20 км {ливн. осадки} 10/5 1000 м
[Sc diur, vesp Ac und]
+9.0 +8.4 96 +7 +7 тепло 1015.9 962.3
03 14.04 Ю 4 2000 м дымка 10/4 1000 м
[Sc Ac und]
+9.1 +8.4 95 +6 +6 по сезону 1015.3 961.7 +8.0
06 14.04 Ю 4 10 км 10/8 200 м
[St Ac As Ci]
+12.7 +10.5 86 +11 +11 тепло 1013.6 960.8
09 14.04 В 4 20 км 9/6 600 м
[Cb calv Ac trans]
+16.9 +10.1 64 +16 +19 тепло 1012.1 960.1
12 14.04 В 4 20 км 9/4 600 м
[Sc diur, vesp Ac trans]
+17.2 +10.0 63 +17 +19 тепло 1010.7 958.9
15 14.04 В 6 20 км 10/4 1000 м
[Sc Ac trans Ci]
+14.8 +10.7 76 +13 +13 тепло 1010.1 957.9 +17.5
18 14.04 В 4 20 км 8/0
[Ac trans Ci fib]
+12.4 +10.4 88 +10 +10 тепло 1009.7 957.1
21 14.04 В 4 20 км 10/0
[Cs]
+10.3 +8.4 88 +8 +8 по сезону 1008.8 955.8
00 15.04 В 4 20 км 8/0
[Ci]
+8.9 +7.4 90 +6 +6 по сезону 1008.6 955.3
03 15.04 ЮВ 2 20 км 9/0
[Ac trans Ci fib]
+8.6 +7.1 90 +7 +7 по сезону 1009.0 955.7 +8.2
06 15.04 СЗ 8-12
{14}
20 км 10/4 600 м
[Sc Ac und]
+12.3 +9.2 81 +9 +9 по сезону 1010.4 957.7
09 15.04 СЗ 6
{12}
20 км в посл. час дождь 8/3 300 м
[Sc Ac trans]
+12.6 +10.0 84 +10 +12 по сезону 1011.8 959.1
12 15.04 С 6
{10}
20 км {дождь} 8/8 600 м
[Sc]
+14.1 +8.4 69 +12 +13 по сезону 1012.9 960.4
15 15.04 СВ 2 20 км 8/4 1000 м
[Sc Ac trans]
+13.2 +8.5 73 +13 +13 тепло 1013.1 960.4 +15.2 1
18 15.04 штиль 0 20 км 8/0
[Ac trans Ci fib]
+9.4 +7.1 86 +9 +9 по сезону 1013.6 960.2
21 15.04 С 2 20 км 10/0
[Ci]
+10.8 +5.4 69 +10 +10 тепло 1012.7 959.6
00 16.04 СЗ 1 20 км 10/0
[Ac und]
+9.8 +8.4 91 +9 +9 тепло 1012.1 958.9
03 16.04 С 2 20 км слаб. дождь 10/6 1000 м
[Sc Ac und]
+10.0 +8.8 92 +8 +8 по сезону 1012.5 959.3 +7.5
06 16.04 З 8-10
{10}
200 м туман {дождь} ?/? +8.8 +8.2 96 +4 +4 прохладно 1013.2 959.7
09 16.04 С 6
{10}
600 м {туман} 10/8
[St Ac und]
+9.9 +9.2 95 +6 +7 прохладно 1013.0 959.7
12 16.04 С 6
{10}
20 км {туман} 10/8 300 м
[Sc Ac und]
+10.9 +7.9 82 +8 +8 прохладно 1012.2 959.1
15 16.04 СВ 4 20 км в посл. час дождь 10/6 300 м
[St Ac As Ci fib]
+10.2 +8.6 90 +7 +8 прохладно 1012.1 959.0 +13.5 1
18 16.04 З 4 10 км {дождь} 10/6 300 м
[St Ac und]
+9.1 +7.9 92 +6 +6 по сезону 1012.9 959.5
21 16.04 З 4 10 км 10/5 200 м
[St Ac und]
+9.3 +7.9 91 +6 +6 по сезону 1011.9 958.5
00 17.04 З 4 1000 м дымка 10/10 100 м
[St]
+8.3 +7.8 97 +5 +5 по сезону 1010.9 957.4
03 17.04 З 6 200 м туман ?/? +7.9 +7.4 97 +4 +4 по сезону 1010.3 956.8 +7.9
06 17.04 З 4 2000 м дымка {туман} 10/10 100 м
[St]
+8.4 +8.0 97 +5 +5 прохладно 1009.9 956.5
09 17.04 З 6 10 км 10/10 200 м
[St]
+9.3 +8.0 92 +5 +5 холодно 1009.7 956.5
12 17.04 С 8-10
{10}
2000 м дождь 10/10 100 м
[St]
+6.9 +6.4 97 +2 +2 очень
холодно
1011.3 957.6
15 17.04 СВ 8-10
{12}
2000 м слаб. дождь 10/0 200 м
[As op]
+3.9 +3.4 97 -3 -3 очень
холодно
1014.7 960.2 +10.6 0.8
18 17.04 СВ 6
{10}
4000 м слаб. дождь 10/10 100 м
[Frnb Ns]
+3.1 +2.6 97 -3 -3 очень
холодно
1017.4 962.5
21 17.04 В 8-10
{12}
10 км слаб. дождь 10/0 200 м
[As op]
+1.6 +1.1 96 -6 -6 очень
холодно
1019.0 963.8
00 18.04 СВ 6
{12}
4000 м слаб. снег {дождь} 10/0 100 м
[As op]
-1.3 -1.7 97 -8 -8 очень
холодно
1020.8 964.8
03 18.04 В 6 4000 м слаб. снег 10/10 200 м
[Frnb Ns]
-1.8 -2.2 97 -9 -9 очень
холодно
1021.9 965.8 -1.9 4 2
06 18.04 В 6 20 км в посл. час снег 10/8 600 м
[Sc Ac und]
-0.3 -2.1 88 -7 -7 очень
холодно
1022.6 966.8
09 18.04 В 6
{11}
20 км 9/3 600 м
[Sc Ac trans]
+4.5 -0.8 68 -1 +2 очень
холодно
1022.3 967.4
12 18.04 В 6
{10}
20 км 9/4 600 м
[Sc Ac trans]
+6.0 -3.0 52 +2 +3 очень
холодно
1022.0 967.4
15 18.04 В 6 20 км 9/3 600 м
[Sc Ac trans]
+4.9 -5.1 48 0 +1 очень
холодно
1022.0 967.2 +6.2 0.3
18 18.04 В 6 20 км 10/0
[Ac und]
+2.8 -7.0 48 -2 -2 очень
холодно
1023.3 968.0
21 18.04 В 4
{10}
20 км 10/0
[Ac As]
-0.2 -5.9 65 -5 -5 очень
холодно
1023.3 967.4
00 19.04 В 4 20 км 10/0
[Ac As]
-0.9 -5.7 70 -6 -6 очень
холодно
1022.2 966.2
03 19.04 В 4 20 км 10/0
[Ac trans Ci fib]
-0.4 -5.3 69 -6 -6 очень
холодно
1021.7 965.9 -1.1
06 19.04 В 10-12
{12}
20 км 10/0
[As op]
+4.0 -7.1 44 -2 -2 очень
холодно
1021.1 966.2
09 19.04 В 10-14
{14}
20 км 10/6 1000 м
[Sc Ac und]
+4.9 -3.5 55 -1 -1 очень
холодно
1020.8 966.0
12 19.04 В 10-12
{14}
20 км 8/5 1000 м
[Sc Ac trans]
+7.9 -4.0 43 +3 +3 очень
холодно
1019.6 965.5
15 19.04 В 8-12
{14}
20 км 8/8 1000 м
[Sc]
+5.9 -3.0 53 +1 +1 очень
холодно
1020.6 966.1 +8.4
18 19.04 В 6
{12}
20 км 8/8 1500 м
[Sc]
+4.1 -3.4 58 -1 -1 очень
холодно
1022.1 967.1
21 19.04 В 6 20 км 8/8 1500 м
[Sc]
+1.2 -4.6 65 -5 -5 очень
холодно
1022.0 966.5
00 20.04 В 6
{10}
20 км 9/9 1000 м
[Sc]
+1.1 -2.8 75 -5 -5 очень
холодно
1021.7 966.1
03 20.04 В 6 20 км 8/3 1500 м
[Sc Ac trans]
-0.3 -1.7 90 -7 -7 очень
холодно
1022.1 966.3 -0.7

 

Местоположение метеостанции Ставрополь (Ставропольский край, Россия): широта 45.12 долгота 42.08 высота над уровнем моря 452 м.

В архиве по умолчанию представлена погода в Ставрополе за последнюю неделю. Архивные данные за месяц целиком и за предыдущие месяцы, начиная с января 2011 года, Вы можете получить, выбрав интересующий диапазон дат из раскрывающегося списка и нажав кнопку "Ввод!".


*Определитесь, кто Вы:
робот инопланетянин человек

Внимание! Время в таблицах - всемирное. Для получения местного времени необходимо прибавить поправку, которая равна 3 ч.

Смотрите также архив погоды в соседних городах и на ближайших метеорологических станциях:

Погода в Изобильном (Ставропольский край, Россия) (41 км)
Погода в Невинномысске (Ставропольский край, Россия) (55 км)
Погода в Светлограде (Ставропольский край, Россия) (66 км)
Погода в Армавире (Краснодарский край, Россия) (77 км)
Погода в Новоалександровске (Ставропольский край, Россия) (81 км)
Погода в Александровском (Ставропольский край, Россия) (85 км)
Погода в Красногвардейском (Ставропольский край, Россия) (92 км)
Погода в Отрадной (Краснодарский край, Россия) (93 км)
Погода в Черкесске (Карачаево-Черкессия, Россия) (100 км)
Погода в Городовиковске (Калмыкия, Россия) (106 км)

Пояснения к столбцам:

Ветер - указаны скорость ветра в м/с - средняя за 10 мин, порывы в срок и между сроками (в фигурных скобках) и направление, откуда дует ветер: С - северный, СВ - северо-восточный, В - восточный, ЮВ - юго-восточный, Ю - южный, ЮЗ - юго-западный, З - западный, СЗ - северо-западный.
Видимость - горизонтальная дальность видимости в метрах или километрах. При видимости от 1 до 10 км при отсутствии осадков обычно наблюдается дымка, при ухудшении видимости до 1 км и менее - туман. В сухую погоду видимость может ухудшаться дымом, пылью или мглою.
Явления - указаны атмосферные явления, наблюдавшиеся в срок или в последний час перед сроком; фигурными скобками обозначены явления, наблюдавшиеся между сроками (за 1-3 часа до срока); квадратными скобками обозначены град или гололедные отложения с указанием их диаметра в мм.
Облачность - указаны через наклонную черту общая и нижняя облачность в баллах и высота нижней границы облаков в метрах; квадратными скобками обозначены формы облаков: Ci - перистые, Cs - перисто-слоистые, Cc - перисто-кучевые, Ac - высококучевые, As - высокослоистые, Sc - слоисто-кучевые, Ns - слоисто-дождевые, Cu - кучевые, Cb - кучево-дождевые. Подробнее классификацию облаков см. в Атласе облаков (PDF).
T - Температура воздуха - температура, измеренная на высоте 2 м над землей.
Td - Температура точки росы - температура, при понижении до которой содержащийся в воздухе водяной пар достигнет насыщения.
f - Относительная влажность воздуха - влажноcть воздуха, измеренная на высоте 2 м над землей.
Te - Эффективная температура - температура, которую ощущает одетый по сезону человек в тени. Характеристика душности погоды. При расчете учитывается влияние влажности воздуха и скорости ветра на теплоощущения человека.
Tes - Эффективная температура на солнце - температура, которую ощущает человек, с поправкой на солнечный нагрев. Характеристика знойности погоды. Зависит от высоты солнца над горизонтом, облачности и скорости ветра. Ночью, в пасмурную погоду, а также при ветре 12 м/с и более поправка равна нулю.
P - Атмосферное давление - приведенное к уровню моря атмосферное давление.
Po - Атмосферное давление - измеренное на уровне метеостанции атмосферное давление.
Tmin - Минимальная температура - минимум температуры воздуха на высоте 2 м над землей.
Tmax - Максимальная температура - максимум температуры воздуха на высоте 2 м над землей.
R - Количество осадков - Количество выпавших осадков за период времени, мм. При наведении курсора мыши на число - период времени, за который выпало указанное количество осадков.
R24 - Количество осадков - Количество выпавших осадков за 24 часа, мм.
S - Снежный покров - Высота снежного покрова, см. При наведении курсора мыши на число - состояние снежного покрова и степень покрытия местности в баллах.